Location: Kumla
(59.1265°N, 15.1401°E)
Time: 01:56:27
(UTC+01:00)

Vanguard 1 - Pass Details

Date: 11 December 2023
Orbit: 653 x 3825 km, 34.3° (Epoch: 03 March)

Event Time Altitude Azimuth Distance (km) Brightness Sun altitude
Rises 22:15:04 0° 266° (W) 6,826 14.6 -50.0°
Reaches altitude 10° 22:21:29 10° 251° (WSW) 6,277 14.2 -50.5°
Enters shadow 22:32:53 19° 218° (SW) 6,063 13.8 -51.2°
Maximum altitude 22:33:18 19° 217° (SW) 6,073 - -51.3°
Drops below altitude 10° 22:46:17 10° 182° (S) 6,893 - -52.0°
Sets 22:54:08 0° 167° (SSE) 7,710 - -52.4°
